Location: Asheville, NC
(35.6000°N, 82.5500°W)
Time: 22:37:11
(UTC-05:00)

Vanguard 1 - Pass Details

Date: 14 December 2017
Orbit: 649 x 3834 km, 34.3° (Epoch: 17 January)

Event Time Altitude Azimuth Distance (km) Brightness Sun altitude
Rises 13:04:39 0° 276° (W) 7,309 14.6 30.4°
Reaches altitude 10° 13:10:11 10° 276° (W) 5,875 14.2 30.2°
Maximum altitude 13:26:19 79° 193° (SSW) 1,895 12.2 29.4°
Drops below altitude 10° 13:34:38 10° 108° (ESE) 3,228 12.8 28.9°
Sets 13:36:49 0° 107° (ESE) 3,935 13.2 28.7°
